Location: Cochran
(32.3868°N, 83.3546°W)
Time: 02:11:50
(UTC+00:00)

CZ-4 R/B - Pass Details

Date: 18 February 2020
Orbit: 580 x 589 km, 97.8° (Epoch: 06 April)

Event Time Altitude Azimuth Distance (km) Brightness Sun altitude
Rises 23:42:05 0° 158° (SSE) 2,784 7.8 -5.1°
Reaches altitude 10° 23:44:15 10° 154° (SSE) 1,889 6.9 -5.5°
Maximum altitude 23:48:16 56° 75° (ENE) 694 4.5 -6.3°
Drops below altitude 10° 23:52:18 10° 358° (N) 1,905 7.0 -7.2°
Sets 23:54:30 0° 354° (N) 2,810 7.9 -7.6°
